This demonstration page uses our WeatherBlox Daily Observations layout. Learn more.

Left ArrowRight Arrow

Hourly Observations for December 26, 2020

Temp ( °F °C ) Dew Point ( °F °C ) Humidity (%) Winds ( mph kmh ) Pressure ( in mb ) Visibility ( mi km ) Precip ( " mm )
12:15 am 00:15 Clear 31 -0.4 24 -4.5 74 74 NNW 5 7 30.05 1018 10 16 N/A
12:35 am 00:35 Clear 31 -0.3 24 -4.7 73 73 N N/A 30.05 1018 10 16 N/A
12:55 am 00:55 Clear 30 -1.2 23 -4.8 77 77 N N/A 30.07 1018 10 16 N/A
1:15 am 01:15 Clear 28 -2 22 -5.3 78 78 N 5 7 30.05 1018 10 16 N/A
1:35 am 01:35 Clear 30 -1.3 23 -4.8 77 77 N 5 7 30.04 1017 10 16 N/A
1:55 am 01:55 Clear 31 -0.7 25 -4.1 78 78 N N/A 30.03 1017 10 16 N/A
2:15 am 02:15 Clear 29 -1.7 24 -4.5 81 81 N N/A 30.04 1017 10 16 N/A
2:35 am 02:35 Clear 29 -1.5 24 -4.4 81 81 N 3 6 30.03 1017 10 16 N/A
2:55 am 02:55 Clear 28 -2.2 24 -4.6 84 84 N N/A 30.03 1017 10 16 N/A
3:15 am 03:15 Clear 29 -1.8 24 -4.2 84 84 N N/A 30.01 1016 10 16 N/A
3:35 am 03:35 Clear 29 -1.4 25 -4 83 83 N N/A 30.01 1016 10 16 N/A
3:55 am 03:55 Clear 27 -2.7 23 -4.9 85 85 N N/A 30.02 1017 10 16 N/A
4:15 am 04:15 Clear 26 -3.6 23 -5.2 89 89 N 3 6 30.03 1017 10 16 N/A
4:35 am 04:35 Clear 26 -3.2 23 -5.1 87 87 N N/A 30.03 1017 10 16 N/A
4:55 am 04:55 Clear 25 -3.8 22 -5.6 87 87 N N/A 30.02 1017 10 16 N/A
5:15 am 05:15 Clear 31 -0.7 25 -3.8 80 80 SSE 3 6 29.97 1015 10 16 N/A
5:35 am 05:35 Clear 26 -3.2 23 -5.1 87 87 N N/A 30.00 1016 10 16 N/A
5:55 am 05:55 Clear 24 -4.2 21 -5.9 88 88 N N/A 30.01 1016 10 16 N/A
6:15 am 06:15 Clear 25 -4.1 20 -6.6 83 83 N N/A 30.00 1016 10 16 N/A
6:35 am 06:35 Clear 26 -3.4 22 -5.8 84 84 N N/A 30.00 1016 10 16 N/A
6:55 am 06:55 Clear 24 -4.5 21 -6.2 88 88 N N/A 30.01 1016 10 16 N/A
7:15 am 07:15 Clear 24 -4.6 21 -6.2 89 89 N N/A 30.01 1016 10 16 N/A
7:35 am 07:35 Clear 25 -4 22 -5.6 89 89 N N/A 30.00 1016 10 16 N/A
7:55 am 07:55 Clear 24 -4.3 22 -5.8 89 89 N N/A 30.01 1016 10 16 N/A
8:15 am 08:15 Sunny 24 -4.6 21 -5.9 91 91 N N/A 30.01 1016 10 16 N/A
8:35 am 08:35 Sunny 27 -2.6 24 -4.7 86 86 S 6 9 29.98 1015 10 16 N/A
8:55 am 08:55 Sunny 32 -0.2 26 -3.3 80 80 S 8 13 29.95 1014 10 16 N/A
9:15 am 09:15 Sunny 33 0.4 27 -2.8 79 79 W 6 9 29.96 1015 10 16 N/A
9:35 am 09:35 Sunny 34 1.2 28 -2.5 77 77 S 3 6 29.94 1014 10 16 N/A
9:55 am 09:55 Sunny 36 2 28 -2.3 73 73 S 7 11 29.93 1013 10 16 N/A
10:15 am 10:15 Sunny 37 2.9 28 -2.4 68 68 SW 6 9 29.93 1013 10 16 N/A
10:35 am 10:35 Sunny 39 4 28 -2.1 65 65 SW 6 9 29.92 1013 10 16 N/A
10:55 am 10:55 Sunny 41 5 28 -2.2 60 60 SSW 9 15 29.90 1012 10 16 N/A
11:15 am 11:15 Sunny 43 6.3 29 -1.8 57 57 SW 6 9 29.88 1012 10 16 N/A
11:35 am 11:35 Sunny 45 7 29 -1.8 54 54 SSW 6 9 29.86 1011 10 16 N/A
11:55 am 11:55 Sunny 46 7.9 28 -2.4 49 49 SW 10 17 29.84 1011 10 16 N/A
12:15 pm 12:15 Sunny 46 7.9 29 -1.9 50 50 SW 7 11 29.83 1010 10 16 N/A
12:35 pm 12:35 Sunny 46 7.9 28 -2 50 50 SW 7 11 29.81 1010 10 16 N/A
12:55 pm 12:55 Sunny 49 9.3 28 -2 45 45 WSW 8 13 29.79 1009 10 16 N/A
1:15 pm 13:15 Sunny 49 9.2 28 -2.2 45 45 WSW 6 9 29.78 1008 10 16 N/A
1:35 pm 13:35 Sunny 49 9.7 28 -2.1 44 44 WSW 6 9 29.77 1008 10 16 N/A
1:55 pm 13:55 Sunny 50 9.8 29 -1.8 45 45 W 6 9 29.75 1008 10 16 N/A
2:15 pm 14:15 Sunny 51 10.3 29 -1.7 43 43 W 7 11 29.75 1007 10 16 N/A
2:35 pm 14:35 Sunny 50 10.1 29 -1.9 43 43 W 7 11 29.74 1007 10 16 N/A
2:55 pm 14:55 Sunny 50 10.2 29 -1.6 44 44 W 6 9 29.74 1007 10 16 N/A
3:15 pm 15:15 Sunny 50 10.2 28 -2 43 43 W 3 6 29.73 1007 10 16 N/A
3:35 pm 15:35 Sunny 49 9.7 29 -1.5 46 46 N N/A 29.74 1007 10 16 N/A
3:55 pm 15:55 Sunny 48 8.8 30 -1.1 50 50 SSW 3 6 29.73 1007 10 16 N/A
4:15 pm 16:15 Sunny 48 9 31 -0.8 51 51 N N/A 29.73 1007 10 16 N/A
4:35 pm 16:35 Sunny 47 8.5 30 -0.9 52 52 N N/A 29.73 1007 10 16 N/A
4:55 pm 16:55 Sunny 46 7.6 30 -1.1 54 54 SSW 5 7 29.73 1007 10 16 N/A
5:15 pm 17:15 Sunny 44 6.4 29 -1.5 57 57 SW 3 6 29.74 1007 10 16 N/A
5:35 pm 17:35 Clear 42 5.3 29 -1.6 61 61 SSW 3 6 29.75 1008 10 16 N/A
5:55 pm 17:55 Clear 40 4.5 28 -2 63 63 SSW 5 7 29.76 1008 10 16 N/A
6:15 pm 18:15 Clear 37 3 28 -2.5 67 67 N N/A 29.78 1008 10 16 N/A
6:35 pm 18:35 Clear 35 1.9 26 -3.1 70 70 WSW 3 6 29.79 1009 10 16 N/A
6:55 pm 18:55 Clear 38 3.5 27 -2.7 64 64 SW 3 6 29.76 1008 10 16 N/A
7:15 pm 19:15 Clear 39 4 27 -3 61 61 SSW 5 7 29.76 1008 10 16 N/A
7:35 pm 19:35 Clear 38 3.1 27 -3 65 65 WSW 3 6 29.75 1008 10 16 N/A
7:55 pm 19:55 Clear 35 1.9 26 -3.3 69 69 SW 5 7 29.77 1008 10 16 N/A
8:15 pm 20:15 Clear 37 3 26 -3.1 65 65 SW 6 9 29.76 1008 10 16 N/A
8:35 pm 20:35 Clear 38 3.3 26 -3.3 62 62 N N/A 29.74 1007 10 16 N/A
8:55 pm 20:55 Clear 38 3.3 26 -3.5 61 61 SW 3 6 29.74 1007 10 16 N/A
9:15 pm 21:15 Clear 37 2.7 25 -3.7 63 63 N N/A 29.75 1007 10 16 N/A
9:35 pm 21:35 Clear 34 1.1 26 -3.6 71 71 SW 7 11 29.76 1008 10 16 N/A
9:55 pm 21:55 Clear 37 2.6 25 -3.7 64 64 SW 5 7 29.74 1007 10 16 N/A
10:15 pm 22:15 Clear 36 2 25 -3.7 66 66 N N/A 29.75 1007 10 16 N/A
10:35 pm 22:35 Clear 35 1.5 26 -3.6 69 69 WSW 3 6 29.75 1007 10 16 N/A
10:55 pm 22:55 Clear 34 1.3 26 -3.5 71 71 SW 3 6 29.75 1008 10 16 N/A
11:15 pm 23:15 Clear 30 -1 24 -4.2 79 79 NNW 6 9 29.77 1008 10 16 N/A
11:35 pm 23:35 Clear 33 0.4 25 -3.7 74 74 N N/A 29.76 1008 10 16 N/A
11:55 pm 23:55 Clear 30 -1.3 24 -4.3 80 80 WNW 5 7 29.78 1008 10 16 N/A

Powered by AerisWeather